Météo par heure à Kyshchentsi

Ce jour, 24 Juillet, Samedi

Heure Température Précipitation Vent Pression Humidité
00:00 +16°C° 0 mm 2 m/s 740 mmHg 75%
01:00 +16°C° 0 mm 2 m/s 740 mmHg 76%
02:00 +16°C° 0 mm 2 m/s 740 mmHg 77%
03:00 +16°C° 0 mm 2 m/s 740 mmHg 78%
04:00 +16°C° 0 mm 2 m/s 740 mmHg 79%
05:00 +16°C° 0 mm 2 m/s 740 mmHg 79%
06:00 +17°C° 0 mm 2 m/s 740 mmHg 75%
07:00 +19°C° 0 mm 2 m/s 740 mmHg 70%
08:00 +21°C° 0 mm 2 m/s 740 mmHg 65%
09:00 +23°C° 0 mm 2 m/s 741 mmHg 61%
10:00 +24°C° 0 mm 2 m/s 741 mmHg 57%
11:00 +25°C° 0 mm 3 m/s 741 mmHg 52%
12:00 +25°C° 0 mm 2 m/s 741 mmHg 51%
13:00 +25°C° 0 mm 2 m/s 741 mmHg 50%
14:00 +26°C° 0 mm 2 m/s 741 mmHg 49%
15:00 +26°C° 0 mm 2 m/s 741 mmHg 51%
16:00 +25°C° 0 mm 2 m/s 741 mmHg 52%
17:00 +25°C° 0 mm 2 m/s 741 mmHg 53%
18:00 +24°C° 0 mm 2 m/s 741 mmHg 56%
19:00 +23°C° 0 mm 1 m/s 741 mmHg 58%
20:00 +22°C° 0 mm 1 m/s 742 mmHg 61%
21:00 +21°C° 0 mm 1 m/s 742 mmHg 61%
22:00 +21°C° 0 mm 1 m/s 742 mmHg 60%
23:00 +19°C° 0 mm 0 m/s 742 mmHg 60%

Demain, 25 Juillet, Dimanche

Heure Température Précipitation Vent Pression Humidité
00:00 +19°C° 0 mm 0 m/s 742 mmHg 60%
01:00 +19°C° 0 mm 0 m/s 742 mmHg 61%
02:00 +18°C° 0 mm 0 m/s 742 mmHg 61%
03:00 +18°C° 0 mm 0 m/s 742 mmHg 61%
04:00 +18°C° 0 mm 0 m/s 742 mmHg 62%
05:00 +19°C° 0 mm 0 m/s 743 mmHg 62%
06:00 +19°C° 0 mm 0 m/s 743 mmHg 63%
07:00 +20°C° 0 mm 0 m/s 743 mmHg 64%
08:00 +20°C° 0 mm 0 m/s 743 mmHg 64%
09:00 +21°C° 0 mm 0 m/s 743 mmHg 59%
10:00 +24°C° 0 mm 1 m/s 744 mmHg 55%
11:00 +25°C° 0 mm 1 m/s 744 mmHg 50%
12:00 +26°C° 0 mm 1 m/s 744 mmHg 46%
13:00 +25°C° 0 mm 0 m/s 744 mmHg 43%
14:00 +26°C° 0 mm 0 m/s 743 mmHg 40%
15:00 +27°C° 0 mm 1 m/s 743 mmHg 42%
16:00 +27°C° 0 mm 1 m/s 743 mmHg 44%
17:00 +27°C° 0 mm 1 m/s 743 mmHg 46%
18:00 +25°C° 0 mm 1 m/s 743 mmHg 49%
19:00 +24°C° 0 mm 1 m/s 743 mmHg 53%
20:00 +23°C° 0 mm 1 m/s 744 mmHg 56%
21:00 +22°C° 0 mm 1 m/s 744 mmHg 57%
22:00 +22°C° 0 mm 1 m/s 744 mmHg 58%
23:00 +21°C° 0 mm 1 m/s 744 mmHg 59%

Après-demain, 26 Juillet, Lundi

Heure Température Précipitation Vent Pression Humidité
00:00 +20°C° 0 mm 2 m/s 744 mmHg 61%
01:00 +19°C° 0 mm 2 m/s 744 mmHg 62%
02:00 +19°C° 0 mm 2 m/s 744 mmHg 64%
03:00 +19°C° 0 mm 2 m/s 744 mmHg 65%
04:00 +19°C° 0 mm 2 m/s 744 mmHg 65%
05:00 +19°C° 0 mm 2 m/s 744 mmHg 65%
06:00 +20°C° 0 mm 2 m/s 744 mmHg 64%
07:00 +21°C° 0 mm 2 m/s 744 mmHg 63%
08:00 +24°C° 0 mm 2 m/s 744 mmHg 62%
09:00 +25°C° 0 mm 2 m/s 744 mmHg 58%
10:00 +26°C° 0 mm 2 m/s 745 mmHg 54%
11:00 +27°C° 0 mm 2 m/s 745 mmHg 50%
12:00 +28°C° 0 mm 1 m/s 745 mmHg 48%
13:00 +28°C° 0 mm 1 m/s 744 mmHg 47%
14:00 +28°C° 0 mm 1 m/s 744 mmHg 46%
15:00 +28°C° 0 mm 1 m/s 744 mmHg 47%
16:00 +28°C° 0 mm 1 m/s 744 mmHg 48%
17:00 +28°C° 0 mm 1 m/s 744 mmHg 49%
18:00 +26°C° 0 mm 2 m/s 744 mmHg 54%
19:00 +24°C° 0 mm 2 m/s 744 mmHg 60%
20:00 +22°C° 0 mm 3 m/s 744 mmHg 65%
21:00 +21°C° 0 mm 3 m/s 744 mmHg 65%
22:00 +21°C° 0 mm 3 m/s 744 mmHg 65%
23:00 +20°C° 0 mm 3 m/s 744 mmHg 65%

27 Juillet, Mardi

Heure Température Précipitation Vent Pression Humidité
00:00 +20°C° 0 mm 3 m/s 744 mmHg 66%
01:00 +20°C° 0 mm 3 m/s 744 mmHg 66%
02:00 +20°C° 0 mm 2 m/s 744 mmHg 66%
03:00 +20°C° 0 mm 3 m/s 744 mmHg 65%
04:00 +20°C° 0 mm 3 m/s 744 mmHg 63%
05:00 +20°C° 0 mm 3 m/s 744 mmHg 62%
06:00 +21°C° 0 mm 3 m/s 744 mmHg 62%
07:00 +22°C° 0 mm 3 m/s 744 mmHg 61%
08:00 +25°C° 0 mm 4 m/s 744 mmHg 61%
09:00 +26°C° 0 mm 4 m/s 744 mmHg 56%
10:00 +28°C° 0 mm 4 m/s 744 mmHg 51%
11:00 +29°C° 0 mm 4 m/s 744 mmHg 47%
12:00 +30°C° 0 mm 4 m/s 744 mmHg 44%
13:00 +32°C° 0 mm 4 m/s 744 mmHg 41%
14:00 +32°C° 0 mm 4 m/s 744 mmHg 39%
15:00 +32°C° 0 mm 4 m/s 743 mmHg 41%
16:00 +32°C° 0 mm 4 m/s 743 mmHg 43%
17:00 +31°C° 0 mm 3 m/s 743 mmHg 46%
18:00 +29°C° 0 mm 3 m/s 743 mmHg 50%
19:00 +27°C° 0 mm 3 m/s 743 mmHg 53%
20:00 +25°C° 0 mm 3 m/s 742 mmHg 57%
21:00 +24°C° 0 mm 3 m/s 742 mmHg 55%
22:00 +24°C° 0 mm 3 m/s 742 mmHg 54%
23:00 +22°C° 0 mm 3 m/s 742 mmHg 52%

28 Juillet, Mercredi

Heure Température Précipitation Vent Pression Humidité
00:00 +22°C° 0 mm 3 m/s 742 mmHg 52%
01:00 +21°C° 0 mm 4 m/s 742 mmHg 53%
02:00 +21°C° 0 mm 4 m/s 742 mmHg 53%
03:00 +21°C° 0 mm 4 m/s 742 mmHg 56%
04:00 +20°C° 0 mm 3 m/s 741 mmHg 60%
05:00 +20°C° 0 mm 3 m/s 741 mmHg 64%
06:00 +21°C° 0.1 mm 4 m/s 741 mmHg 62%
07:00 +23°C° 0.1 mm 4 m/s 741 mmHg 60%
08:00 +25°C° 0.1 mm 4 m/s 742 mmHg 58%
09:00 +26°C° 0.1 mm 5 m/s 741 mmHg 58%
10:00 +26°C° 0.1 mm 6 m/s 741 mmHg 58%
11:00 +26°C° 0.1 mm 6 m/s 741 mmHg 58%
12:00 +28°C° 0 mm 7 m/s 741 mmHg 56%
13:00 +29°C° 0 mm 7 m/s 740 mmHg 53%
14:00 +30°C° 0 mm 7 m/s 740 mmHg 50%
15:00 +30°C° 0 mm 6 m/s 740 mmHg 52%
16:00 +32°C° 0 mm 6 m/s 739 mmHg 53%
17:00 +32°C° 0 mm 5 m/s 739 mmHg 54%
18:00 +29°C° 0 mm 5 m/s 739 mmHg 60%
19:00 +26°C° 0 mm 6 m/s 739 mmHg 66%
20:00 +23°C° 0 mm 6 m/s 739 mmHg 72%
21:00 +22°C° 0 mm 5 m/s 739 mmHg 73%
22:00 +22°C° 0 mm 5 m/s 738 mmHg 74%
23:00 +21°C° 0 mm 4 m/s 738 mmHg 75%

29 Juillet, Jeudi

Heure Température Précipitation Vent Pression Humidité
00:00 +21°C° 0 mm 4 m/s 738 mmHg 78%
01:00 +20°C° 0 mm 4 m/s 738 mmHg 80%
02:00 +19°C° 0 mm 4 m/s 738 mmHg 83%
03:00 +19°C° 0 mm 3 m/s 738 mmHg 86%
04:00 +19°C° 0 mm 3 m/s 738 mmHg 90%
05:00 +18°C° 0 mm 3 m/s 738 mmHg 94%
06:00 +19°C° 0 mm 4 m/s 738 mmHg 90%
07:00 +20°C° 0 mm 4 m/s 739 mmHg 86%
08:00 +21°C° 0 mm 5 m/s 739 mmHg 81%
09:00 +23°C° 0 mm 5 m/s 739 mmHg 76%
10:00 +25°C° 0 mm 5 m/s 739 mmHg 71%
11:00 +26°C° 0 mm 5 m/s 739 mmHg 67%
12:00 +27°C° 0 mm 5 m/s 739 mmHg 64%
13:00 +27°C° 0 mm 5 m/s 739 mmHg 62%
14:00 +28°C° 0 mm 5 m/s 739 mmHg 60%
15:00 +27°C° 0.1 mm 5 m/s 739 mmHg 62%
16:00 +27°C° 0.1 mm 5 m/s 739 mmHg 64%
17:00 +27°C° 0.1 mm 4 m/s 739 mmHg 66%
18:00 +25°C° 0.1 mm 4 m/s 739 mmHg 71%
19:00 +24°C° 0.1 mm 3 m/s 740 mmHg 77%
20:00 +22°C° 0.1 mm 3 m/s 740 mmHg 82%
21:00 +21°C° 0 mm 2 m/s 740 mmHg 83%
22:00 +21°C° 0 mm 2 m/s 740 mmHg 85%
23:00 +20°C° 0 mm 2 m/s 740 mmHg 86%
Voir plus

Nous avons besoin de votre consentement

Meteoprog et ses fournisseurs de services peuvent stocker et accéder à des données personnelles telles que des cookies, des identifiants d'appareils ou d'autres technologies similaires sur votre appareil et traiter ces données pour personnaliser le contenu et les publicités, ainsi que pour fournir des fonctionnalités de médias sociaux et analyser le trafic.

  • Stocker et/ou accéder à des informations sur votre appareil

    Des cookies, des identifiants d'appareils ou d'autres informations peuvent être stockés ou accessibles sur votre appareil aux fins indiquées ci-dessus.

  • Annonces et contenus personnalisés, mesure des annonces et des contenus, connaissance de l'audience et développement de produits

    Les annonces et le contenu peuvent être personnalisés en fonction d'un profil. D'autres données peuvent être ajoutées pour mieux personnaliser les annonces et le contenu. Les performances des publicités et du contenu peuvent être mesurées. Il est possible d'obtenir des informations sur le public qui a vu les publicités et le contenu. Ces données peuvent être utilisées pour développer ou améliorer l'expérience de l'utilisateur, les systèmes et les logiciels.

En cliquant sur "J'accepte", vous autorisez l'utilisation de cookies, des identifiants d'appareils, des balises web ou d'autres technologies similaires. Vos paramètres peuvent être modifiés dans le navigateur de votre appareil.

Dans certains cas, des intérêts légitimes peuvent être invoqués plutôt qu'un consentement. Vous pouvez en savoir plus à ce sujet dans notre Politique de confidentialité et de cookies.